GW4987 Weather Reports


time (UTC)temp
F
wind
direction
speed
knots
gust
knots
rain 1hr
in
rain 24hr
in
rain mn
in
humidity
%
barometer
mb
20260505140546 46 255 2.6 9.6 0.00 0.00 0.00 64 1014.0
20260505125010 45 106 2.6 6.1 0.00 0.00 0.00 61 1013.8
20260505124547 45 125 4.3 6.1 0.00 0.00 0.00 61 1013.8
20260505124046 45 79 1.7 6.1 0.00 0.00 0.00 60 1013.6
20260505123527 45 128 5.2 7.0 0.00 0.00 0.00 60 1013.7
20260505123047 45 122 4.3 6.1 0.00 0.00 0.00 60 1013.7
20260505122546 45 98 2.6 7.8 0.00 0.00 0.00 60 1013.5
20260505122046 45 97 1.7 4.3 0.00 0.00 0.00 60 1013.7
20260505121547 45 168 3.5 6.1 0.00 0.00 0.00 60 1013.6
20260505121047 44 165 2.6 6.1 0.00 0.00 0.00 61 1013.7
20260505120510 44 186 1.7 4.3 0.00 0.00 0.00 63 1013.5
20260505120010 44 154 0.0 3.5 0.00 0.00 0.00 62 1013.3
20260505115547 44 164 2.6 6.1 0.00 0.00 0.00 61 1013.6
20260505115011 44 132 3.5 5.2 0.00 0.00 0.00 62 1013.7
20260505114546 44 113 2.6 7.8 0.00 0.00 0.00 62 1013.7
20260505114046 44 186 2.6 4.3 0.00 0.00 0.00 64 1013.8
20260505113547 44 99 2.6 5.2 0.00 0.00 0.00 64 1013.8
20260505113010 43 108 2.6 2.6 0.00 0.00 0.00 66 1013.8
20260505112546 44 160 1.7 3.5 0.00 0.00 0.00 65 1013.8
20260505112046 44 194 1.7 5.2 0.00 0.00 0.00 66 1013.9
20260505111510 44 192 1.7 2.6 0.00 0.00 0.00 65 1013.7
20260505111047 45 89 1.7 2.6 0.00 0.00 0.00 63 1013.7
20260505110546 45 105 4.3 7.8 0.00 0.00 0.00 62 1013.8
20260505102011 43 76 1.7 2.6 0.00 0.00 0.00 68 1014.1
20260505101546 44 43 2.6 4.3 0.00 0.00 0.00 68 1014.1
20260505101011 43 73 2.6 2.6 0.00 0.00 0.00 68 1014.1
20260505100546 43 37 1.7 2.6 0.00 0.00 0.00 68 1014.3
20260505100046 44 353 0.0 1.7 0.00 0.00 0.00 67 1014.2
20260505095547 44 69 2.6 3.5 0.00 0.00 0.00 67 1014.3
20260505095011 44 123 2.6 2.6 0.00 0.00 0.00 66 1014.3
20260505094546 44 31 3.5 4.3 0.00 0.00 0.00 67 1014.4
20260505094047 44 163 1.7 3.5 0.00 0.00 0.00 66 1014.3
20260505092046 43 66 1.7 1.7 0.00 0.00 0.00 66 1014.6
20260505091546 44 138 3.5 3.5 0.00 0.00 0.00 65 1014.7
20260505091047 44 267 1.7 2.6 0.00 0.00 0.00 64 1014.7
20260505090546 45 106 2.6 4.3 0.00 0.00 0.00 63 1014.7
20260505090011 46 105 2.6 6.1 0.00 0.00 0.00 61 1015.1
20260505085547 46 150 5.2 6.1 0.00 0.00 0.00 61 1015.1
20260505085046 46 134 4.3 6.1 0.00 0.00 0.00 61 1015.2
20260505084511 46 123 2.6 10.4 0.00 0.00 0.00 60 1015.2
20260505084010 46 139 7.8 8.7 0.00 0.00 0.00 61 1015.1
20260505083527 46 121 3.5 5.2 0.00 0.00 0.00 62 1015.3
20260505083047 45 208 5.2 7.8 0.00 0.00 0.00 62 1015.3
20260505082546 44 188 4.3 5.2 0.00 0.00 0.00 64 1015.2
20260505082046 45 118 3.5 5.2 0.00 0.00 0.00 64 1015.3
20260505081547 46 115 3.5 7.8 0.00 0.00 0.00 62 1015.3
20260505081010 46 129 2.6 7.0 0.00 0.00 0.00 63 1015.3
20260505080546 45 182 5.2 8.7 0.00 0.00 0.00 64 1015.1
20260505080046 44 109 2.6 4.3 0.00 0.00 0.00 67 1015.2
20260505074010 44 356 2.6 3.5 0.00 0.00 0.00 70 1015.1
20260505073547 45 63 3.5 4.3 0.00 0.00 0.00 69 1015.2
20260505073047 44 50 2.6 2.6 0.00 0.00 0.00 70 1015.3
20260505072546 45 48 2.6 2.6 0.00 0.00 0.00 69 1015.2
20260505072010 45 37 0.0 4.3 0.00 0.00 0.00 68 1015.3
20260505071547 46 87 2.6 3.5 0.00 0.00 0.00 67 1015.3
20260505071046 46 60 1.7 4.3 0.00 0.00 0.00 67 1015.1
20260505070516 45 113 3.5 3.5 0.00 0.00 0.00 69 1015.3
20260505070005 46 89 1.7 2.6 0.00 0.00 0.00 68 1015.3
20260505065547 46 100 0.0 1.7 0.00 0.00 0.00 66 1015.4
20260505065047 46 14 3.5 3.5 0.00 0.00 0.00 67 1015.2
20260505064546 46 63 2.6 4.3 0.00 0.00 0.00 67 1015.2
20260505064046 46 54 0.0 1.7 0.00 0.00 0.00 66 1015.4
20260505063547 47 102 4.3 5.2 0.00 0.00 0.00 65 1015.4
20260505063046 47 127 3.5 4.3 0.00 0.00 0.00 63 1015.7
20260505062546 47 106 4.3 5.2 0.00 0.00 0.00 63 1015.5
20260505062047 47 199 1.7 6.1 0.00 0.00 0.00 61 1015.3
20260505061547 47 144 2.6 4.3 0.00 0.00 0.00 61 1015.2
20260505061012 48 137 5.2 7.0 0.00 0.00 0.00 60 1015.3
20260505060546 48 138 4.3 6.1 0.00 0.00 0.00 60 1015.4
20260505060011 48 46 0.0 3.5 0.00 0.00 0.00 58 1015.6
20260505055546 48 143 4.3 6.1 0.00 0.00 0.00 58 1015.6
20260505055046 48 192 1.7 4.3 0.00 0.00 0.00 56 1015.7
20260505054547 48 68 3.5 3.5 0.00 0.00 0.00 56 1015.6
20260505054012 48 117 1.7 4.3 0.00 0.00 0.00 55 1015.8
20260505053547 48 113 5.2 5.2 0.00 0.00 0.00 54 1015.9
20260505053047 49 187 8.7 11.3 0.00 0.00 0.00 54 1015.8
20260505052511 49 135 6.1 13.9 0.00 0.00 0.00 52 1015.8
20260505052046 49 206 4.3 12.2 0.00 0.00 0.00 52 1015.7
20260505051547 49 130 1.7 8.7 0.00 0.00 0.00 51 1015.5
20260505051011 49 128 3.5 4.3 0.00 0.00 0.00 50 1015.6
20260505050547 49 147 4.3 9.6 0.00 0.00 0.00 49 1015.7
20260505041547 50 154 4.3 12.2 0.00 0.00 0.00 46 1015.7
20260505041047 50 109 3.5 6.1 0.00 0.00 0.00 47 1015.8
20260505035047 50 130 3.5 7.0 0.00 0.00 0.00 47 1015.8
20260505034511 50 177 6.1 17.4 0.00 0.00 0.00 46 1015.6
20260505034011 50 129 6.1 10.4 0.00 0.00 0.00 46 1015.5
20260505033547 50 140 5.2 9.6 0.00 0.00 0.00 47 1015.4
20260505033012 50 106 10.4 11.3 0.00 0.00 0.00 45 1015.4
20260505032547 51 196 4.3 7.8 0.00 0.00 0.00 43 1015.3
20260505032047 51 133 10.4 12.2 0.00 0.00 0.00 42 1015.2
20260505031547 51 257 6.1 11.3 0.00 0.00 0.00 42 1015.0
20260505031011 51 198 2.6 7.8 0.00 0.00 0.00 44 1015.2
20260505030547 51 122 4.3 11.3 0.00 0.00 0.00 43 1015.2
20260505030047 51 141 4.3 13.9 0.00 0.00 0.00 44 1015.1
20260505025546 51 125 4.3 6.1 0.00 0.00 0.00 43 1015.2
20260505025012 52 130 6.1 9.6 0.00 0.00 0.00 43 1015.0
20260505023046 52 162 4.3 12.2 0.00 0.00 0.00 41 1014.7
20260505022547 52 177 2.6 13.0 0.00 0.00 0.00 40 1015.0
20260505022011 53 132 4.3 10.4 0.00 0.00 0.00 40 1014.9
20260505021546 53 219 1.7 9.6 0.00 0.00 0.00 40 1014.9
20260505021047 53 198 9.6 13.9 0.00 0.00 0.00 39 1014.9
20260505015011 54 174 7.8 7.8 0.00 0.00 0.00 38 1014.9
20260505014546 54 192 7.0 15.6 0.00 0.00 0.00 39 1014.6
20260505014047 54 158 6.1 8.7 0.00 0.00 0.00 39 1014.5
20260505013547 54 104 4.3 7.0 0.00 0.00 0.00 38 1014.9
20260505013011 55 211 10.4 11.3 0.00 0.00 0.00 38 1014.7
20260505012547 55 181 9.6 13.0 0.00 0.00 0.00 39 1014.9
20260505012046 55 127 4.3 7.0 0.00 0.00 0.00 40 1014.9
20260505011547 55 189 9.6 11.3 0.00 0.00 0.00 39 1014.7
20260505005547 56 174 9.6 20.0 0.00 0.00 0.00 38 1014.6
20260505005047 56 146 8.7 16.5 0.00 0.00 0.00 37 1014.9
20260505004547 56 205 18.2 20.0 0.00 0.00 0.00 38 1014.6
20260505004011 56 175 8.7 14.8 0.00 0.00 0.00 39 1015.0
20260505003547 57 169 5.2 20.9 0.00 0.00 0.00 38 1015.0
20260505003047 57 190 7.8 11.3 0.00 0.00 0.00 38 1015.0
20260505002511 58 121 3.5 13.0 0.00 0.00 0.00 35 1015.1
20260505002012 59 187 11.3 18.2 0.00 0.00 0.00 34 1015.0
20260505001547 59 138 10.4 13.0 0.00 0.00 0.00 34 1014.9
20260504235546 57 190 7.8 25.2 0.00 0.00 0.00 34 1014.7
20260504235012 59 212 9.6 17.4 0.00 0.00 0.00 32 1014.7
20260504233012 59 217 11.3 19.1 0.00 0.00 0.00 30 1014.9
20260504232546 60 183 4.3 10.4 0.00 0.00 0.00 30 1014.7
20260504232047 60 181 7.0 20.0 0.00 0.00 0.00 31 1015.0
20260504231546 59 194 13.0 21.7 0.00 0.00 0.00 32 1015.1
20260504231046 59 203 6.1 15.6 0.00 0.00 0.00 33 1015.1
20260504230547 60 176 13.9 14.8 0.00 0.00 0.00 32 1015.0
20260504230012 59 194 9.6 17.4 0.00 0.00 0.00 32 1015.0
20260504225546 59 167 6.1 14.8 0.00 0.00 0.00 32 1014.9
20260504225047 58 178 13.9 21.7 0.00 0.00 0.00 33 1015.1
20260504223011 62 173 5.2 13.0 0.00 0.00 0.00 30 1015.5
20260504222547 60 232 7.0 13.0 0.00 0.00 0.00 30 1015.2
20260504222046 60 186 9.6 11.3 0.00 0.00 0.00 30 1015.3
20260504221517 59 160 12.2 27.8 0.00 0.00 0.00 31 1015.4
20260504221011 60 180 8.7 18.2 0.00 0.00 0.00 32 1015.5
20260504220547 60 147 6.1 22.6 0.00 0.00 0.00 32 1015.4
20260504220016 61 135 6.1 21.7 0.00 0.00 0.00 32 1015.4
20260504215547 61 181 11.3 17.4 0.00 0.00 0.00 33 1015.4
20260504215012 61 150 8.7 20.0 0.00 0.00 0.00 32 1015.4
20260504214515 60 201 13.0 17.4 0.00 0.00 0.00 34 1015.5
20260504214047 61 159 8.7 23.5 0.00 0.00 0.00 31 1015.6
20260504213547 60 143 7.8 19.1 0.00 0.00 0.00 28 1015.6
20260504213014 60 190 11.3 17.4 0.00 0.00 0.00 32 1015.5
20260504212547 61 117 2.6 16.5 0.00 0.00 0.00 32 1015.6
20260504212012 61 209 7.0 13.0 0.00 0.00 0.00 31 1015.7
20260504211514 59 214 12.2 29.5 0.00 0.00 0.00 32 1015.8
20260504211047 60 178 9.6 20.9 0.00 0.00 0.00 36 1015.9
20260504210512 60 165 9.6 23.5 0.00 0.00 0.00 42 1015.6
20260504210011 60 187 13.0 19.1 0.00 0.00 0.00 40 1015.6
20260504205547 59 198 18.2 33.0 0.00 0.00 0.00 37 1015.7
20260504205012 60 172 13.9 19.1 0.00 0.00 0.00 38 1015.9
20260504204510 59 217 15.6 19.1 0.00 0.00 0.00 41 1015.9
20260504204047 60 209 18.2 20.9 0.00 0.00 0.00 38 1015.9
20260504203547 60 195 17.4 21.7 0.00 0.00 0.00 39 1015.8
20260504203009 60 143 13.9 20.9 0.00 0.00 0.00 43 1015.6
20260504202546 61 176 8.7 13.0 0.00 0.00 0.00 41 1015.5
20260504202047 59 216 13.0 18.2 0.00 0.00 0.00 42 1015.6
20260504201507 60 182 12.2 23.5 0.00 0.00 0.00 43 1015.8
20260504201012 61 186 13.0 19.1 0.00 0.00 0.00 41 1015.7
20260504200547 59 186 11.3 24.3 0.00 0.00 0.00 49 1015.7
20260504200006 60 107 13.0 16.5 0.00 0.00 0.00 43 1015.9
20260504195546 60 192 7.0 12.2 0.00 0.00 0.00 43 1015.9
20260504195047 58 125 7.8 28.7 0.00 0.00 0.00 49 1015.9
20260504193004 59 192 12.2 18.2 0.00 0.00 0.00 52 1015.9
20260504192512 59 113 4.3 17.4 0.00 0.00 0.00 49 1015.9
20260504192012 60 122 7.0 15.6 0.00 0.00 0.00 47 1015.7
20260504191502 60 139 20.0 26.1 0.00 0.00 0.00 44 1015.6
20260504191012 59 137 12.2 20.9 0.00 0.00 0.00 46 1015.9
20260504190547 60 152 21.7 22.6 0.00 0.00 0.00 44 1015.9
20260504190002 59 131 6.1 20.9 0.00 0.00 0.00 46 1016.2
20260504185546 58 168 13.0 24.3 0.00 0.00 0.00 47 1016.3
20260504185011 60 157 8.7 22.6 0.00 0.00 0.00 43 1016.1
20260504184549 60 140 13.0 20.9 0.00 0.00 0.00 45 1016.2
20260504184047 58 173 9.6 25.2 0.00 0.00 0.00 48 1016.4
20260504183547 58 218 19.1 23.5 0.00 0.00 0.00 43 1016.2
20260504183011 59 132 9.6 15.6 0.00 0.00 0.00 46 1016.1
20260504182547 58 107 6.1 18.2 0.00 0.00 0.00 48 1016.1
20260504182047 60 161 7.8 13.9 0.00 0.00 0.00 45 1015.9
20260504181547 58 190 9.6 17.4 0.00 0.00 0.00 48 1015.9
20260504181047 59 139 7.0 13.9 0.00 0.00 0.00 48 1016.3
20260504180547 58 191 9.6 15.6 0.00 0.00 0.00 48 1016.3
20260504180011 58 182 7.8 16.5 0.00 0.00 0.00 47 1016.3
20260504175546 58 138 7.0 18.2 0.00 0.00 0.00 48 1016.0
20260504174011 58 207 14.8 18.2 0.00 0.00 0.00 45 1016.0
20260504173547 58 154 6.1 16.5 0.00 0.00 0.00 47 1015.9
20260504173011 58 158 7.8 15.6 0.00 0.00 0.00 48 1016.1
20260504172546 58 227 10.4 17.4 0.00 0.00 0.00 48 1016.1
20260504172046 59 118 11.3 13.0 0.00 0.00 0.00 47 1016.2
20260504171546 58 115 12.2 16.5 0.00 0.00 0.00 48 1016.3
20260504171047 58 119 8.7 12.2 0.00 0.00 0.00 47 1016.3
20260504170547 58 185 6.1 11.3 0.00 0.00 0.00 47 1015.9
20260504151012 55 148 5.2 7.0 0.00 0.00 0.00 47 1015.9
20260504150555 54 177 6.1 9.6 0.00 0.00 0.00 49 1016.0